Track PORCUPINE 1 now! 10-day predictions PORCUPINE 1 is classified as:
1 01272U 65016H 22180.89509164 -.00000020 00000-0 24489-4 0 9999 2 01272 70.0804 85.6986 0024136 226.7006 133.2087 13.94259365914515